TimeIDT,TemperatureF,Dew PointF,Humidity,Sea Level PressureIn,VisibilityMPH,Wind Direction,Wind SpeedMPH,Gust SpeedMPH,PrecipitationIn,Events,Conditions,WindDirDegrees,DateUTC
12:20 AM,77.0,62.6,61,29.86,6.2,Variable,3.5,-,N/A,,Scattered Clouds,0,2013-09-08 21:20:00
12:50 AM,75.2,62.6,65,29.86,6.2,SSE,5.8,-,N/A,,Scattered Clouds,150,2013-09-08 21:50:00
1:20 AM,75.2,62.6,65,29.86,6.2,SSE,6.9,-,N/A,,Partly Cloudy,150,2013-09-08 22:20:00
1:50 AM,75.2,62.6,65,29.86,6.2,SSE,4.6,-,N/A,,Scattered Clouds,160,2013-09-08 22:50:00
2:20 AM,75.2,62.6,65,29.83,6.2,Variable,3.5,-,N/A,,Partly Cloudy,0,2013-09-08 23:20:00
2:50 AM,75.2,62.6,65,29.83,6.2,Variable,2.3,-,N/A,,Partly Cloudy,0,2013-09-08 23:50:00
3:00 AM,74,63,60,29.85,6,,2.3,,,,Scattered Clouds,,2013-09-09 00:00:00
3:20 AM,71.6,60.8,69,29.83,-9999.0,Variable,1.2,-,N/A,,Clear,0,2013-09-09 00:20:00
3:50 AM,73.4,62.6,69,29.83,-9999.0,Variable,2.3,-,N/A,,Clear,0,2013-09-09 00:50:00
4:20 AM,73.4,62.6,69,29.83,-9999.0,Variable,3.5,-,N/A,,Clear,0,2013-09-09 01:20:00
4:50 AM,73.4,64.4,73,29.83,-9999.0,Variable,3.5,-,N/A,,Clear,0,2013-09-09 01:50:00
5:20 AM,73.4,64.4,73,29.86,-9999.0,Variable,3.5,-,N/A,,Clear,0,2013-09-09 02:20:00
5:50 AM,73.4,64.4,73,29.86,6.2,SE,4.6,-,N/A,,Partly Cloudy,140,2013-09-09 02:50:00
6:20 AM,73.4,64.4,73,29.86,6.2,SE,5.8,-,N/A,,Scattered Clouds,140,2013-09-09 03:20:00
6:50 AM,73.4,64.4,73,29.86,6.2,SE,4.6,-,N/A,,Partly Cloudy,140,2013-09-09 03:50:00
7:20 AM,75.2,64.4,69,29.86,-9999.0,ESE,4.6,-,N/A,,Clear,120,2013-09-09 04:20:00
7:50 AM,77.0,64.4,65,29.86,-9999.0,SSE,4.6,-,N/A,,Clear,150,2013-09-09 04:50:00
8:20 AM,77.0,64.4,65,29.86,6.2,South,5.8,-,N/A,,Partly Cloudy,180,2013-09-09 05:20:00
8:50 AM,78.8,66.2,65,29.86,6.2,SSE,6.9,-,N/A,,Partly Cloudy,160,2013-09-09 05:50:00
9:00 AM,79,66,55,29.88,6,SSE,6.9,,,,Scattered Clouds,160,2013-09-09 06:00:00
9:20 AM,80.6,66.2,61,29.86,6.2,Variable,3.5,-,N/A,,Scattered Clouds,0,2013-09-09 06:20:00
9:50 AM,82.4,66.2,58,29.86,6.2,South,5.8,-,N/A,,Scattered Clouds,170,2013-09-09 06:50:00
10:20 AM,82.4,64.4,54,29.89,6.2,WSW,4.6,-,N/A,,Mostly Cloudy,240,2013-09-09 07:20:00
10:50 AM,84.2,60.8,45,29.89,6.2,Variable,3.5,-,N/A,,Scattered Clouds,0,2013-09-09 07:50:00
11:20 AM,82.4,64.4,54,29.86,6.2,West,6.9,-,N/A,,Mostly Cloudy,260,2013-09-09 08:20:00
11:50 AM,84.2,64.4,51,29.86,6.2,West,5.8,-,N/A,,Mostly Cloudy,270,2013-09-09 08:50:00
12:20 PM,84.2,64.4,51,29.86,6.2,West,6.9,-,N/A,,Mostly Cloudy,270,2013-09-09 09:20:00
12:50 PM,86.0,64.4,48,29.86,6.2,West,8.1,-,N/A,,Mostly Cloudy,270,2013-09-09 09:50:00
1:20 PM,86.0,64.4,48,29.86,6.2,West,9.2,-,N/A,,Scattered Clouds,260,2013-09-09 10:20:00
1:50 PM,86.0,64.4,48,29.86,6.2,WNW,10.4,-,N/A,,Scattered Clouds,290,2013-09-09 10:50:00
2:20 PM,86.0,64.4,48,29.83,6.2,West,10.4,-,N/A,,Partly Cloudy,270,2013-09-09 11:20:00
2:50 PM,87.8,62.6,43,29.83,6.2,WNW,10.4,-,N/A,,Partly Cloudy,290,2013-09-09 11:50:00
3:00 PM,87,63,35,29.85,6,WNW,12.7,,,,Scattered Clouds,290,2013-09-09 12:00:00
3:20 PM,86.0,62.6,45,29.83,6.2,WNW,12.7,-,N/A,,Partly Cloudy,300,2013-09-09 12:20:00
3:50 PM,84.2,62.6,48,29.83,6.2,WNW,12.7,-,N/A,,Partly Cloudy,300,2013-09-09 12:50:00
4:20 PM,84.2,62.6,48,29.83,6.2,WNW,11.5,-,N/A,,Partly Cloudy,300,2013-09-09 13:20:00
4:50 PM,84.2,62.6,48,29.86,6.2,WNW,12.7,-,N/A,,Partly Cloudy,300,2013-09-09 13:50:00
5:20 PM,84.2,62.6,48,29.86,6.2,WNW,10.4,-,N/A,,Partly Cloudy,300,2013-09-09 14:20:00
5:50 PM,84.2,62.6,48,29.86,6.2,WNW,9.2,-,N/A,,Partly Cloudy,300,2013-09-09 14:50:00
6:20 PM,82.4,64.4,54,29.86,-9999.0,NW,9.2,-,N/A,,Clear,310,2013-09-09 15:20:00
6:50 PM,82.4,64.4,54,29.86,-9999.0,NW,9.2,-,N/A,,Clear,310,2013-09-09 15:50:00
7:20 PM,82.4,62.6,51,29.86,-9999.0,NNW,9.2,-,N/A,,Clear,330,2013-09-09 16:20:00
7:50 PM,80.6,64.4,58,29.86,-9999.0,North,6.9,-,N/A,,Clear,350,2013-09-09 16:50:00
8:20 PM,80.6,64.4,58,29.89,-9999.0,North,6.9,-,N/A,,Clear,360,2013-09-09 17:20:00
8:50 PM,80.6,64.4,58,29.89,-9999.0,North,6.9,-,N/A,,Clear,350,2013-09-09 17:50:00
9:00 PM,80,65,50,29.91,6,North,6.9,,,,,350,2013-09-09 18:00:00
9:20 PM,78.8,64.4,61,29.89,-9999.0,North,4.6,-,N/A,,Clear,360,2013-09-09 18:20:00
9:50 PM,78.8,64.4,61,29.92,-9999.0,North,4.6,-,N/A,,Clear,360,2013-09-09 18:50:00
10:20 PM,78.8,64.4,61,29.92,-9999.0,Variable,2.3,-,N/A,,Clear,0,2013-09-09 19:20:00
10:50 PM,78.8,64.4,61,29.92,-9999.0,Variable,2.3,-,N/A,,Clear,0,2013-09-09 19:50:00
11:20 PM,78.8,64.4,61,29.89,-9999.0,Variable,3.5,-,N/A,,Clear,0,2013-09-09 20:20:00
11:50 PM,77.0,62.6,61,29.89,-9999.0,Variable,1.2,-,N/A,,Clear,0,2013-09-09 20:50:00